Starlink 30389

operational
NORAD ID: 57783 Int'l Des: 2023-134 Owner: SPXS Country: US Constellation: starlink
LEOCIRCULAR

Starlink 30389について

説明を読み込み中...

リアルタイム位置

3D地球を読み込み中...

次回通過

高度履歴

Altitude vs Time

uPlot chart will show altitude changes over time

軌道要素

1 57783U 23134N 25354.19732305 -.00000081 00000-0 90533-5 0 9997
2 57783 43.0048 269.4339 0000848 274.3891 85.6855 15.02535112127519
Epoch: Dec 20, 2025 • Age: 26 hours

現在のステータス

高度 560.5 km
速度 7.59 km/s
衛星直下点 32.77°N, 119.43°E
打ち上げ日 Sep 4, 2023
運用期間 2.2 years
タイプ internet

技術仕様

分類 Payload
質量 730.00 kg
乾燥質量 700.00 kg
総質量 730.00 kg
長さ 0.30 m
直径 4.10 m
スパン 29.00 m
形状 Box + pan
製造者 SPXS
バスタイプ Starlink V2M
フェーズステータス In Orbit
所有者/国 SPXS/US

大規模コンステレーション

Loading constellations...